Location: Cassano d�Adda
(45.5333°N, 9.5167°E)
Time: 08:19:21
(UTC+00:00)

Cosmos 2369 Rocket - Pass Details

Date: 08 December 2019
Orbit: 828 x 853 km, 71.0° (Epoch: 20 January)

Event Time Altitude Azimuth Distance (km) Brightness Sun altitude
Rises 17:48:48 0° 340° (NNW) 3,389 5.5 -22.0°
Reaches altitude 10° 17:51:39 10° 353° (N) 2,455 4.6 -22.5°
Enters shadow 17:54:02 20° 14° (NNE) 1,840 3.7 -22.9°
